Le nostre stazioni meteo in Italia

Pubblicità
Il mio iltempo24.it
Fyvie castle, Gran Bretagna (99010): Temperatura & dewpoint: 17.10.2017 03:00:00 - 23.10.2017 03:00:00 (BST)Fyvie castle, Gran Bretagna (99010): precipitazioni: 17.10.2017 03:00:00 - 23.10.2017 03:00:00 (BST)
Data & Tempo tt [°C] td [°C] rr [mm]
23.10.2017 03:00:00 3,7 3,3 -
23.10.2017 02:00:00 4,7 4,2 0,0
23.10.2017 01:00:00 6,3 5,5 0,0
23.10.2017 00:00:00 8,2 6,8 0,0
22.10.2017 23:00:00 9,0 7,5 0,0
22.10.2017 22:00:00 10,0 8,0 0,0
22.10.2017 21:00:00 10,2 8,4 0,0
22.10.2017 20:00:00 10,1 8,8 -
22.10.2017 19:00:00 10,7 9,0 0,0
22.10.2017 18:00:00 11,2 9,6 0,0
22.10.2017 17:00:00 11,8 10,4 0,0
22.10.2017 16:00:00 12,0 10,7 0,0
22.10.2017 15:00:00 12,2 10,5 0,0
22.10.2017 14:00:00 12,3 11,0 0,0
22.10.2017 13:00:00 11,9 11,2 -
22.10.2017 12:00:00 12,1 10,9 0,0
22.10.2017 11:00:00 11,9 11,3 0,0
22.10.2017 10:00:00 11,4 11,1 0,0
22.10.2017 09:00:00 11,1 10,9 0,0
22.10.2017 08:00:00 10,6 10,5 5,4
22.10.2017 07:00:00 10,5 10,3 -
22.10.2017 06:00:00 10,5 10,2 3,0
22.10.2017 05:00:00 - - 1,2
22.10.2017 04:00:00 10,7 10,4 0,4
22.10.2017 03:00:00 10,8 10,5 0,2
22.10.2017 02:00:00 10,7 10,5 0,0
22.10.2017 01:00:00 10,8 10,5 2,8
22.10.2017 00:00:00 10,8 10,3 0,0
21.10.2017 23:00:00 11,2 10,5 0,0
21.10.2017 22:00:00 11,5 10,6 0,2
21.10.2017 21:00:00 11,6 10,8 -
21.10.2017 20:00:00 11,8 10,6 0,0
21.10.2017 19:00:00 11,6 10,4 0,2
21.10.2017 18:00:00 11,9 10,1 0,0
21.10.2017 17:00:00 12,2 10,2 0,0
21.10.2017 16:00:00 12,6 10,2 0,0
21.10.2017 15:00:00 14,1 11,0 0,0
21.10.2017 14:00:00 13,8 10,3 0,0
21.10.2017 13:00:00 13,3 11,3 0,0
21.10.2017 12:00:00 12,3 11,5 0,0
21.10.2017 11:00:00 11,6 11,1 1,2
21.10.2017 10:00:00 11,4 10,7 0,0
21.10.2017 09:00:00 11,3 10,6 0,0
21.10.2017 08:00:00 11,1 10,6 0,6
21.10.2017 07:00:00 - - -
21.10.2017 06:00:00 - - -
21.10.2017 05:00:00 - - -
21.10.2017 04:00:00 - - -
21.10.2017 03:00:00 - - -
21.10.2017 02:00:00 - - -
21.10.2017 01:00:00 - - -
21.10.2017 00:00:00 - - -
20.10.2017 23:00:00 - - -
20.10.2017 22:00:00 - - -
20.10.2017 21:00:00 - - -
20.10.2017 20:00:00 11,3 10,5 0,0
20.10.2017 19:00:00 11,6 11,1 0,0
20.10.2017 18:00:00 11,8 10,9 0,0
20.10.2017 17:00:00 13,0 11,9 0,0
20.10.2017 16:00:00 13,6 11,8 0,0
20.10.2017 15:00:00 13,2 11,6 0,0
20.10.2017 14:00:00 13,2 11,2 0,0
20.10.2017 13:00:00 12,8 11,3 0,0
20.10.2017 12:00:00 12,6 11,4 0,0
20.10.2017 11:00:00 12,1 11,9 0,0
20.10.2017 10:00:00 11,7 11,5 0,2
20.10.2017 09:00:00 11,8 11,5 0,0
20.10.2017 08:00:00 12,2 12,0 0,0
20.10.2017 07:00:00 12,3 12,0 0,0
20.10.2017 06:00:00 12,3 12,1 0,0
20.10.2017 05:00:00 12,5 12,4 0,0
20.10.2017 04:00:00 12,6 12,4 0,0
20.10.2017 03:00:00 12,6 12,4 0,4
20.10.2017 02:00:00 12,6 12,4 2,2
20.10.2017 01:00:00 12,4 12,2 0,4
20.10.2017 00:00:00 11,8 11,6 0,4
19.10.2017 23:00:00 11,8 11,5 0,6
19.10.2017 22:00:00 11,8 11,6 0,6
19.10.2017 21:00:00 11,4 10,9 1,0
19.10.2017 20:00:00 11,8 10,8 0,0
19.10.2017 19:00:00 11,7 10,6 0,0
19.10.2017 18:00:00 12,0 10,6 0,0
19.10.2017 17:00:00 12,2 10,9 0,0
19.10.2017 16:00:00 12,2 11,0 0,0
19.10.2017 15:00:00 12,3 10,9 0,0
19.10.2017 14:00:00 12,5 11,0 0,0
19.10.2017 13:00:00 12,5 11,7 0,2
19.10.2017 12:00:00 12,3 11,9 0,0
19.10.2017 11:00:00 12,1 11,7 0,2
19.10.2017 10:00:00 11,9 11,5 0,0
19.10.2017 09:00:00 11,4 11,1 0,0
19.10.2017 08:00:00 10,9 10,7 0,2
19.10.2017 07:00:00 10,4 9,8 0,2
19.10.2017 06:00:00 10,8 9,8 0,0
19.10.2017 05:00:00 10,6 9,9 0,0
19.10.2017 04:00:00 10,2 9,6 0,0
19.10.2017 03:00:00 9,5 9,2 0,0
19.10.2017 02:00:00 8,6 7,9 0,0
19.10.2017 01:00:00 7,7 7,3 0,0
19.10.2017 00:00:00 7,3 7,1 0,0
18.10.2017 23:00:00 6,7 6,5 0,0
18.10.2017 22:00:00 6,8 6,5 0,0
18.10.2017 21:00:00 7,7 7,5 0,0
18.10.2017 20:00:00 7,5 7,0 0,0
18.10.2017 19:00:00 8,0 7,3 0,2
18.10.2017 18:00:00 8,6 7,5 0,2
18.10.2017 17:00:00 9,8 6,5 0,0
18.10.2017 16:00:00 10,3 6,2 0,0
18.10.2017 15:00:00 10,5 6,6 0,0
18.10.2017 14:00:00 10,2 6,7 0,0
18.10.2017 13:00:00 10,3 7,2 0,0
18.10.2017 12:00:00 10,3 8,1 0,0
18.10.2017 11:00:00 8,8 8,5 0,0
18.10.2017 10:00:00 7,7 7,7 0,0
18.10.2017 09:00:00 7,0 7,0 0,0
18.10.2017 08:00:00 6,6 6,5 0,0
18.10.2017 07:00:00 6,5 6,5 0,0
18.10.2017 06:00:00 6,4 6,3 0,0
18.10.2017 05:00:00 6,7 6,6 0,0
18.10.2017 04:00:00 6,1 5,8 0,0
18.10.2017 03:00:00 6,9 6,5 0,0
18.10.2017 02:00:00 7,5 7,3 0,0
18.10.2017 01:00:00 7,7 7,4 0,0
18.10.2017 00:00:00 8,0 7,6 0,0
17.10.2017 23:00:00 8,2 7,6 0,0
17.10.2017 22:00:00 8,7 8,0 0,2
17.10.2017 21:00:00 9,0 8,0 0,0
17.10.2017 20:00:00 9,1 8,5 0,4
17.10.2017 19:00:00 9,2 8,7 1,2
17.10.2017 18:00:00 9,6 9,0 0,2
17.10.2017 17:00:00 9,8 9,1 0,8
17.10.2017 16:00:00 10,3 9,7 0,4
17.10.2017 15:00:00 10,8 10,1 0,4
17.10.2017 14:00:00 11,5 10,6 0,2
17.10.2017 13:00:00 12,8 11,1 0,0
17.10.2017 12:00:00 14,5 11,5 0,2
17.10.2017 11:00:00 13,5 10,6 0,0
17.10.2017 10:00:00 13,8 10,2 0,0
17.10.2017 09:00:00 12,9 9,8 0,0
17.10.2017 08:00:00 13,2 9,4 0,0
17.10.2017 07:00:00 14,1 10,0 0,0
17.10.2017 06:00:00 12,4 9,3 0,0
17.10.2017 05:00:00 12,7 9,6 0,0
17.10.2017 04:00:00 12,8 10,3 0,0
17.10.2017 03:00:00 12,7 10,6 0,0

tt = Temperatura
td = dewpoint
rr = precipitazioni

Stazioni seguenti

WeatherPro
AMSI
MeteoEarth